Overview Statistics Trail Chart Weather Telemetry Raw packets
 

This is the latest recevied weather packets stored in our database for station/object EA1IDU-12. If no packets are shown the sender has not sent any weather packets the latest 10 day(s).

<< 7 8 9 10 11 12 13 >>
Time Temp. Humidity Pressure Rain* Wind** Luminosity Snow
1788422102 23.33° C 55% 1034.1 hPa - - - -
1788421202 21.11° C 58% 1034 hPa - - - -
1788420302 18.89° C 60% 1034.1 hPa - - - -
1788419402 17.22° C 60% 1033.9 hPa - - - -
1788418501 15.56° C 62% 1033.9 hPa - - - -
1788417601 13.89° C 63% 1033.9 hPa - - - -
1788416701 12.78° C 64% 1033.8 hPa - - - -
1788415801 11.11° C 65% 1033.7 hPa - - - -
1788414901 10.56° C 64% 1033.7 hPa - - - -
1788414001 10° C 64% 1033.6 hPa - - - -
1788413100 10° C 64% 1033.5 hPa - - - -
1788412200 10° C 63% 1033.4 hPa - - - -
1788411300 10° C 63% 1033.5 hPa - - - -
1788410399 10° C 63% 1033.5 hPa - - - -
1788409516 10° C 62% 1033.3 hPa - - - -
1788408616 10° C 61% 1033.4 hPa - - - -
1788407716 10.56° C 61% 1033.4 hPa - - - -
1788406816 10.56° C 61% 1033.4 hPa - - - -
1788405915 10.56° C 60% 1033.7 hPa - - - -
1788405015 11.11° C 61% 1033.5 hPa - - - -
1788404115 11.11° C 60% 1033.6 hPa - - - -
1788403215 11.67° C 60% 1033.6 hPa - - - -
1788402315 11.67° C 59% 1033.6 hPa - - - -
1788401415 12.22° C 59% 1033.7 hPa - - - -
1788400514 12.22° C 58% 1033.7 hPa - - - -

* Rain since midnight (hover to see other rain measurements)
** Current wind speed in m/s (hover to see current wind gust speed)